Tracking 34706 objects as of 10-Jul-2026
HD Live streaming from Space Station
objects crossing your sky now

SL-14 R/B

Track SL-14 R/B now!
10-day predictions


NORAD ID: 15100
Int'l Code: 1984-072B
Perigee: 945.3 km
Apogee: 964.5 km
Inclination: 82.5 °
Period: 104.0 minutes
Semi major axis: 7325 km
RCS: 5.0553 m2 (large)
Launch date: July 5, 1984
Source: Commonwealth of Independent States (former USSR) (CIS)
Launch site: PLESETSK MISSILE AND SPACE COMPLEX (PKMTR)

Note: This is a ROCKET BODY
Your satellite tracking list
Your tracking list is empty




NASA's NSSDC Master Catalog

Two Line Element Set (TLE):
1 15100U 84072B   26191.01884810  .00000037  00000-0  19293-4 0  9995
2 15100  82.5291  26.8301 0013045  58.7248 301.5188 13.84557973122635
Source of the keplerian elements: AFSPC